Regional Weather Roundup
Issued by NWS Grand Forks, ND

Home | Current Version | Previous Version | Graphics & Text | Print | Product List | Glossary On
Versions: 1 2 3 4 5 6 7 8 9 10 11 12 13 14 15 16 17 18 19 20 21 22 23 24 25 26 27 28 29 30 31 32 33 34 35 36 37 38 39 40 41 42 43 44 45 46 47 48 49 50
000
ASUS43 KFGF 302010
RWRFGF
PRAIRIE TO PINES  WEATHER ROUNDUP
NATIONAL WEATHER SERVICE EASTERN NORTH DAKOTA/GRAND FORKS ND
300 PM CDT SAT APR 30 2016

 **SATELLITE DATA USED TO AUGMENT SKY COVER AT AUTOMATED STATIONS**
 *****  WEATHER ACROSS EASTERN NORTH DAKOTA  *****

CITY           SKY/WX    TMP DP  RH WIND       PRES   REMARKS
GRAND FORKS    MOSUNNY   61  28  28 NE22G29   30.21F
GRAND FRKS AFB SUNNY     60  25  25 E20G29    30.21F
DEVILS LAKE    SUNNY     58  29  33 NE15G26   30.24F
FARGO          CLOUDY    64  27  24 E17G28    30.14F
WAHPETON ARPT  CLOUDY    61  27  27 E15G23    30.11F
$$

 ***** WEATHER ACROSS CENTRAL AND WESTERN NORTH DAKOTA  *****

CITY           SKY/WX    TMP DP  RH WIND       PRES   REMARKS
BISMARCK       SUNNY     60  29  30 E23G32    30.19S
MINOT          MOSUNNY   66  28  24 E14G24    30.24S
JAMESTOWN      SUNNY     60  29  30 E21G29    30.16F
MINOT AFB      SUNNY     61  28  29 E14G24    30.23F
GARRISON         N/A     59  29  31 E18G26    30.23S
WILLISTON      SUNNY     62  29  28 E12       30.25F
DICKINSON      CLOUDY    54  30  40 NE20      30.19S
HETTINGER      CLOUDY    55  34  45 NE18G25   30.18R
$$

 *****  OTHER AIRPORT OBSERVATIONS IN OUR AREA  *****

CITY           SKY/WX    TMP DP  RH WIND       PRES   REMARKS
WALHALLA       FAIR      59  32  36 NE16G28   30.27S
GRAFTON AIRPOR FAIR      61  30  31 NE14G28   30.25F
VALLEY CITY AR FAIR      59  27  29 NE21G32   30.17F
CANDO          FAIR      61  28  29 E16G23    30.28S
CAVALIER APRT  FAIR      59  32  36 NE13G23   30.26S
GWINNER        FAIR      61  32  33 NE23G32   30.12F
SHEYENNE NWR     N/A     60  28  29 E17       29.95S
ROLLA          FAIR      59  25  27 NE21G28   30.28S
 ***** THE ABOVE OBSERVATIONS ARE NON NWS ARE NOT QUALITY
       CONTROLLED AND MAY MIS-REPORT RAIN FOR SNOW...
$$

  *****  WEATHER ACROSS NORTHERN MINNESOTA  *****

CITY           SKY/WX    TMP DP  RH WIND       PRES   REMARKS
FLAG ISLAND    SUNNY     52  25  35 NE15G23   30.28S
WARROAD        SUNNY     54  30  40 NE13      30.29S
ROSEAU         SUNNY     55  34  44 E22G28    30.26F
HALLOCK        SUNNY     61  25  25 E15G23    30.25S
THF RVR FALLS  SUNNY     57  25  28 NE20G30   30.22F
BAUDETTE       SUNNY     58  26  29 NE9G20    30.25F
WASKISH        SUNNY     57  30  35 N13G18    30.21F
CROOKSTON      SUNNY     61  27  27 E18G26    30.20F
STEPHEN NDAWN    N/A     61  30  31 NE18        N/A
GREENBUSH NDAW   N/A     57  30  35 NE15        N/A
$$
  *****  WEATHER ACROSS CENTRAL AND WEST MINNESOTA  *****

CITY           SKY/WX    TMP DP  RH WIND       PRES   REMARKS
FOSSTON        SUNNY     57  25  28 NE18G28   30.18F
BEMIDJI        SUNNY     58  28  31 E15G25    30.16F
PARK RAPIDS    CLOUDY    58  26  29 NE16G29   30.13F
ELBOW LAKE     FAIR      56  32  41 NE17G23   30.11S
WADENA         MOSUNNY   57  30  35 E18G25    30.10F
DETROIT LAKES  CLOUDY    57  28  33 E15G24    30.14F
MOORHEAD       CLOUDY    61  28  29 NE18G25   30.14F
FERGUS FALLS   MOSUNNY   59  30  33 E17G24    30.09F
MORRIS MN      CLOUDY    57  37  47 E18G24    30.07S
STAPLES        CLOUDY    57  28  33 E14G24    30.11F
$$
  *****  WEATHER ELSEWHERE ACROSS MINNESOTA  *****

CITY           SKY/WX    TMP DP  RH WIND       PRES   REMARKS
DULUTH         MOSUNNY   47  27  45 E22G35    30.22S
INTRNTL FALLS  SUNNY     56  28  34 N14G21    30.24F
ELY            MOSUNNY   54  25  32 E12G20    30.22S
CLOQUET        CLOUDY    48  25  40 E21G32    30.20F
WHEATON        PTSUNNY   61  37  41 NE17G29   30.10F
BRAINERD       CLOUDY    56  31  38 E10G18    30.14S
HIBBING        PTSUNNY   54  26  34 E16       30.18F
ALEXANDRIA     PTSUNNY   57  33  40 E18G28    30.10S
SAINT CLOUD    PTSUNNY   57  33  40 NE16G26   30.07F
MINNEAPOLIS    CLOUDY    57  33  40 E20G28    30.03F
$$

  *****  WEATHER ACROSS SOUTH DAKOTA  *****

CITY           SKY/WX    TMP DP  RH WIND       PRES   REMARKS
SIOUX FALLS    LGT RAIN  45  41  86 NE31G43   29.90S FOG
BROOKINGS      CLOUDY    47  37  68 NE17G29   29.97S
WATERTOWN      CLOUDY    52  35  52 E22G36    30.02R
HURON          CLOUDY    50  37  61 NE22G32   30.00R
SISSETON         N/A     59  34  39 E20G31    30.06F
ABERDEEN       PTSUNNY   58  36  43 NE24G32   30.07F
MITCHELL       RAIN      45  44  97 NE21G30   29.96R FOG
PIERRE         CLOUDY    53  35  50 NE26G32   30.01F
MOBRIDGE       CLOUDY    60  32  34 NE25G35   30.08F
RAPID CITY     CLOUDY    48  36  63 N20       30.09R
$$

  *****  SOME WEATHER IN NEARBY STATES *****

CITY           SKY/WX    TMP DP  RH WIND       PRES   REMARKS
GLASGOW MT     SUNNY     59  29  31 SE8       30.25S
GREAT FALLS MT CLOUDY    52  35  52 MISG      30.22R
CHEYENNE WY    LGT SNOW  32  29  88 N24G31    30.00R VSB 3/4 WCI  19
SCOTTSBLUFF NE LGT RAIN  38  37  97 N16G26    30.01R
OMAHA NE       DRIZZLE   50  48  93 E5        29.76R FOG
DES MOINES IA  LGT RAIN  50  46  86 E15G22    29.77S FOG
DAVENPORT IA   RAIN      48  46  93 E18       29.81F FOG
CHICAGO IL     LGT RAIN  45  42  89 NE15      29.94F FOG
EAU CLAIRE WI  CLOUDY    58  32  37 NE20G26   30.04F
LA CROSSE WI   CLOUDY    53  36  52 E14G20    30.00F
$$

  *****  SOME NATIONAL WEATHER *****

CITY           SKY/WX    TMP DP  RH WIND       PRES   REMARKS
LA GUARDIA NY  PTSUNNY   62  32  32 S13       30.19F
RALEIGH NC     CLOUDY    64  56  75 E9        30.13F
ATLANTA GA     CLOUDY    84  64  50 SW10      29.92F
NEW ORLEANS LA TSTM      79  73  82 SE10      29.82R
OKLAHOMA CITY  MOSUNNY   68  49  50 NW14G28   29.81S
ALBUQUERQUE NM PTSUNNY   61  32  33 N9        29.84F
SALT LAKE CITY PTSUNNY   59  31  34 N18       29.91F
LOS ANGELES CA MOSUNNY   64  50  60 W15       29.83S
BOISE ID       SUNNY     67  37  33 NW21G28   30.01F
SEATTLE WA     MOSUNNY   61  45  55 NW6       30.36F
$$

*** WEATHER ACROSS MANITOBA...SASKATCHEWAN AND ONTARIO ***
                ***ONTARIO***

CITY           SKY/WX    TMP DP  RH WIND       PRES   REMARKS
GERALDTON      PTSUNNY   46  25  42 VRB9G17   30.30F
THUNDER BAY    MOSUNNY   52  27  37 E10G21    30.27F
SIOUX LOOKOUT  MOSUNNY   54  27  35 N7        30.28F
TORONTO        PTSUNNY   57  30  35 E13       30.14F
BIG TROUT LK   SUNNY     45  27  49 S5        30.38F
PICKLE LAKE    MOSUNNY   46  25  42 N8        30.33F
DRYDEN         SUNNY     54  23  30 E10G21    30.28F
KENORA         SUNNY     54  25  32 NE10G20   30.28F
$$
                *** MANITOBA***

CITY           SKY/WX    TMP DP  RH WIND       PRES   REMARKS
BRANDON        MOSUNNY   61  28  29 NE18G28   30.31F
DAUPHIN        SUNNY     61  27  27 E16G23    30.36F
ISLAND LAKE    NOT AVBL
PILOT MOUND      N/A     59  25  27 NE18G26     N/A
THE PAS        CLOUDY    66  27  22 VRB2      30.34F
THOMPSON       MOSUNNY   68  30  24 VRB7      30.29F
WINNIPEG       SUNNY     61  30  31 NE16G25   30.30F
LYNN LAKE      SUNNY     68  23  18 S10G18    30.25F
CHURCHILL      PTSUNNY   37  25  60 SE14      30.42F
GILLAM         PTSUNNY   54  25  32 SE5       30.36F
$$
                ***SASKATCHEWAN***

CITY           SKY/WX    TMP DP  RH WIND       PRES   REMARKS
ESTEVAN        MOSUNNY   63  25  23 E18       30.27F
KINDERSLEY     PTSUNNY   61  30  31 VRB5      30.28S
LLOYDMINSTER   PTSUNNY   61  32  33 S13G20    30.25S
PRINCE ALBERT  NOT AVBL
REGINA         MOSUNNY   63  23  22 SE10G20   30.30S
YORKTON        SUNNY     63  27  25 E12G23    30.33F
N. BATTLEFORD  MOSUNNY   64  28  25 S13       30.28F
LA RONGE       MOSUNNY   68  23  18 SE15      30.27F
SASKATOON      MOSUNNY   66  23  19 SE10      30.31S
SWIFT CURRENT  MOSUNNY   61  28  29 SE12G21   30.26F
$$
NOTE: THESE ARE AUTOMATED STATIONS WITH LIMITED QUALITY CONTROL
      "FAIR" INDICATES FEW OR NO CLOUDS BELOW 12,000 FEET WITH NO
      SIGNIFICANT WEATHER AND/OR OBSTRUCTIONS TO VISIBILITY.
      SKY/WX - SKY CONDITION AND SIGNIFICANT WEATHER.
      TMP - AIR TEMPERATURE.    DP   - DEWPOINT TEMPERATURE.
      RH  - RELATIVE HUMIDITY.  PRES - PRESSURE.
      HX  - HEAT INDEX.         WCI  - WIND CHILL INDEX.
$




USA.gov is the U.S. government's official web portal to all federal, state and local government web resources and services.